This demonstration page uses our WeatherBlox Daily Observations layout. Learn more.

Left ArrowRight Arrow

Hourly Observations for January 22, 2017

Temp ( °F °C ) Dew Point ( °F °C ) Humidity (%) Winds ( mph kmh ) Pressure ( in mb ) Visibility ( mi km ) Precip ( " mm )
12:58 am 00:58 Clear 30 -0.9 30 -0.9 100 100 Calm 29.61 1003 10 16 0.00 0.00
1:20 am 01:20 Mostly Clear 28 -2 28 -2 100 100 VRB 3 6 29.65 1004 9 14 0.00 0.00
1:58 am 01:58 Mostly Clear 31 -0.4 31 -0.4 100 100 Calm 29.62 1003 10 16 0.00 0.00
2:58 am 02:58 Clear 30 -1.1 30 -1.1 100 100 Calm 29.65 1004 9 14 0.00 0.00
3:58 am 03:58 Clear 28 -2.3 28 -2.3 100 100 NNW 5 7 29.67 1005 10 16 0.00 0.00
4:45 am 04:45 Partly Cloudy 32 0 32 0 100 100 NNW 7 11 29.74 1007 10 16 0.00 0.00
4:48 am 04:48 Mostly Cloudy 32 0 32 0 100 100 N 8 13 29.71 1006 10 16 0.00 0.00
4:51 am 04:51 Mostly Cloudy 32 0 32 0 100 100 NNW 10 17 29.71 1006 10 16 0.00 0.00
4:58 am 04:58 Mostly Cloudy 31 -0.4 31 -0.4 100 100 N 12 19 29.69 1005 10 16 0.00 0.00
5:01 am 05:01 Mostly Cloudy 32 0 32 0 100 100 N 8 13 29.71 1006 9 14 0.00 0.00
5:34 am 05:34 Cloudy 32 0 32 0 100 100 N 9 15 29.74 1007 8 13 0.00 0.00
5:58 am 05:58 Cloudy 32 -0.2 32 -0.2 100 100 NNW 9 15 29.70 1006 10 16 0.00 0.00
6:40 am 06:40 Cloudy 32 0 32 0 100 100 NNW 15 24 29.74 1007 10 16 0.00 0.00
6:58 am 06:58 Cloudy 32 0.1 32 0.1 100 100 NNW 8 13 29.74 1007 10 16 0.00 0.00
7:22 am 07:22 Cloudy 32 0 32 0 100 100 NNW 10 17 29.77 1008 10 16 0.00 0.00
7:58 am 07:58 Cloudy 32 0.2 32 0.2 100 100 NNW 10 17 29.76 1008 10 16 0.00 0.00
8:55 am 08:55 Cloudy 32 0 32 0 100 100 N 3 6 29.77 1008 10 16 0.00 0.00
8:58 am 08:58 Cloudy 33 0.6 33 0.6 100 100 N 7 11 29.79 1009 10 16 0.00 0.00
9:58 am 09:58 Cloudy 35 1.4 34 1.3 99 99 N 3 6 29.81 1009 10 16 0.00 0.00
10:58 am 10:58 Cloudy 36 2.2 36 2.1 99 99 NW 14 22 29.82 1010 10 16 0.00 0.00
11:04 am 11:04 Cloudy 36 2 36 2 100 100 NNW 14 22 29.80 1009 10 16 0.00 0.00
11:31 am 11:31 Cloudy 37 3 36 2 93 93 NNW 10 17 29.80 1009 10 16 0.00 0.00
11:37 am 11:37 Cloudy 37 3 36 2 93 93 NW 12 19 29.80 1009 10 16 0.00 0.00
11:40 am 11:40 Cloudy 37 3 37 3 100 100 NW 14 22 29.80 1009 10 16 0.00 0.00
11:43 am 11:43 Cloudy 37 3 37 3 100 100 NNW 12 19 29.80 1009 10 16 0.00 0.00
11:46 am 11:46 Cloudy 37 3 37 3 100 100 NNW 12 19 29.80 1009 10 16 0.00 0.00
11:52 am 11:52 Cloudy 37 3 37 3 100 100 NW 15 24 29.80 1009 10 16 0.00 0.00
11:58 am 11:58 Cloudy 38 3.1 37 2.6 97 97 NW 15 24 29.82 1010 10 16 0.00 0.00
12:04 pm 12:04 Cloudy 37 3 36 2 93 93 NW 14 22 29.80 1009 10 16 0.00 0.00
12:58 pm 12:58 Cloudy 37 3 37 2.6 97 97 NNW 12 19 29.82 1010 10 16 0.00 0.00
1:58 pm 13:58 Cloudy 38 3.1 37 2.8 98 98 NW 12 19 29.83 1010 10 16 0.00 0.00
2:58 pm 14:58 Cloudy 38 3.5 38 3.2 98 98 NW 10 17 29.85 1011 10 16 0.00 0.00
3:58 pm 15:58 Cloudy 40 4.3 39 3.7 96 96 NNW 9 15 29.85 1011 10 16 0.00 0.00
4:01 pm 16:01 Cloudy 39 4 39 4 100 100 NNW 9 15 29.83 1010 10 16 0.00 0.00
4:46 pm 16:46 Partly Cloudy 39 4 39 4 100 100 WNW 9 15 29.85 1011 10 16 0.00 0.00
4:58 pm 16:58 Partly Cloudy 38 3.3 38 3.1 99 99 NW 7 11 29.87 1011 10 16 0.00 0.00
5:58 pm 17:58 Clear 35 1.4 35 1.4 100 100 NW 8 13 29.88 1012 10 16 0.00 0.00
6:58 pm 18:58 Clear 32 0.1 32 0.1 100 100 WNW 5 7 29.90 1013 10 16 0.00 0.00
7:58 pm 19:58 Clear 30 -1.1 30 -1.1 100 100 NW 6 9 29.91 1013 10 16 0.00 0.00
8:58 pm 20:58 Clear 29 -1.9 29 -1.9 100 100 WNW 5 7 29.91 1013 10 16 0.00 0.00
9:58 pm 21:58 Clear 27 -2.7 27 -2.7 100 100 WNW 3 6 29.91 1013 10 16 0.00 0.00
10:58 pm 22:58 Clear with Mist and Fog 26 -3.2 26 -3.2 100 100 NW 5 7 29.93 1014 6 10 0.00 0.00
11:55 pm 23:55 Mostly Clear with Mist and Fog 25 -4 25 -4 100 100 Calm 29.94 1014 4 6 0.00 0.00
11:58 pm 23:58 Mostly Clear with Mist and Fog 25 -4 25 -4 100 100 Calm 29.93 1014 3 5 0.00 0.00

Powered by AerisWeather